Tracking 32963 objects as of 21-Jan-2026
HD Live streaming from Space Station
objects crossing your sky now

MINOTAUR 4 DEB

Track MINOTAUR 4 DEB now!
10-day predictions


NORAD ID: 52037
Int'l Code: 2020-046AB
Perigee: 557.2 km
Apogee: 566.5 km
Inclination: 54.0 °
Period: 95.7 minutes
Semi major axis: 6932 km
RCS: Unknown
Launch date: July 15, 2020
Source: United States (US)
Launch site: WALLOPS ISLAND (WLPIS)

Note: This is SATELLITE DEBRIS
Your satellite tracking list
Your tracking list is empty




NASA's NSSDC Master Catalog

Two Line Element Set (TLE):
1 52037U 20046AB  26020.66676729  .00002451  00000-0  19532-3 0  9993
2 52037  53.9782 167.7779 0006674 315.0688  44.9771 15.03957356219672
Source of the keplerian elements: AFSPC